Regional Weather Roundup
Issued by NWS Charleston, WV

Home | Current Version | Previous Version | Text Only | Print | Product List | Glossary Off
Versions: 1 2 3 4 5 6 7 8 9 10 11 12 13 14 15 16 17 18 19 20 21 22 23 24 25 26 27 28 29 30 31 32 33 34 35 36 37 38 39 40 41 42 43 44 45 46

000
ASUS41 KRLX 212210
RWRRLX
West Virginia Regional Weather Roundup
National Weather Service Charleston WV
500 PM EST TUE NOV 21 2017

Note: "fair" indicates few or no clouds below 12,000 feet with no
significant weather and/or obstructions to visibility.

WVZ003-212300-
Northern Panhandle of West Virginia

CITY           SKY/WX    TMP DP  RH WIND       PRES   REMARKS
WHEELING       CLEAR     53  28  38 SW12G21   29.91S
$$

WVZ009-212300-
Northwest West Virginia

CITY           SKY/WX    TMP DP  RH WIND       PRES   REMARKS
PARKERSBURG    CLEAR     58  32  37 W7G17     29.96R
$$

WVZ006-212300-
Western West Virginia

CITY           SKY/WX    TMP DP  RH WIND       PRES   REMARKS
HUNTINGTON     CLEAR     61  38  42 SW7G16    29.93F
$$

WVZ015-212300-
West Central West Virginia

CITY           SKY/WX    TMP DP  RH WIND       PRES   REMARKS
CHARLESTON     PTCLDY    60  36  40 S9        29.94F
$$

WVZ022-031-212300-
North Central West Virginia

CITY           SKY/WX    TMP DP  RH WIND       PRES   REMARKS
CLARKSBURG     CLEAR     58  28  32 SW10      29.94R
MORGANTOWN     CLEAR     57  27  31 S6        29.94R
$$

WVZ025-035-042-045-212300-
Southern West Virginia

CITY           SKY/WX    TMP DP  RH WIND       PRES   REMARKS
BECKLEY        PTCLDY    55  36  48 SW7       30.00S
LOGAN          CLOUDY    61  41  48 SW6       29.96F
BLUEFIELD      MOCLDY    55  38  52 SW8       30.02F
LEWISBURG      CLEAR     57  37  48 SW14      30.01S
$$

WVZ047-212300-
Northern Mountains of West Virginia

CITY           SKY/WX    TMP DP  RH WIND       PRES   REMARKS
ELKINS         CLEAR     54  29  38 S5        29.96S
$$

WVZ052-212300-
Eastern Panhandle of West Virginia

CITY           SKY/WX    TMP DP  RH WIND       PRES   REMARKS
MARTINSBURG    CLEAR     55  30  38 SE9       29.96S
PETERSBURG     CLEAR     59  29  32 S7        29.95R
$$




USA.gov is the U.S. government's official web portal to all federal, state and local government web resources and services.